Time,TemperatureF,DewpointF,PressureIn,WindDirection,WindDirectionDegrees,WindSpeedMPH,WindSpeedGustMPH,Humidity,HourlyPrecipIn,Conditions,Clouds,dailyrainin,SoftwareType,DateUTC
2013-07-14 00:03:00,65.5,48.4,30.04,NNW,338,0.0,2.0,54,0.00,,---,0.00,VWS V14.00,2013-07-14 07:03:00,
2013-07-14 00:08:00,65.2,48.2,30.04,NNW,338,0.0,2.0,54,0.00,,---,0.00,VWS V14.00,2013-07-14 07:08:00,
2013-07-14 00:13:00,64.9,48.4,30.04,NNW,338,0.0,2.0,55,0.00,,---,0.00,VWS V14.00,2013-07-14 07:13:00,
2013-07-14 00:18:00,64.5,48.5,30.04,NNW,338,0.0,2.0,56,0.00,,---,0.00,VWS V14.00,2013-07-14 07:18:00,
2013-07-14 00:23:00,64.2,48.7,30.04,NNW,337,0.0,2.0,57,0.00,,---,0.00,VWS V14.00,2013-07-14 07:23:00,
2013-07-14 00:28:00,63.8,48.8,30.04,NNW,337,0.0,2.0,58,0.00,,---,0.00,VWS V14.00,2013-07-14 07:28:00,
2013-07-14 00:33:00,63.5,48.9,30.04,NNW,337,2.0,2.0,59,0.00,,---,0.00,VWS V14.00,2013-07-14 07:33:00,
2013-07-14 00:38:00,63.2,49.1,30.04,NNW,336,1.0,2.0,60,0.00,,---,0.00,VWS V14.00,2013-07-14 07:38:00,
2013-07-14 00:43:00,62.9,48.8,30.04,NNW,336,0.0,2.0,60,0.00,,---,0.00,VWS V14.00,2013-07-14 07:43:00,
2013-07-14 00:48:00,62.7,49.5,30.04,NNW,336,0.0,2.0,62,0.00,,---,0.00,VWS V14.00,2013-07-14 07:48:00,
2013-07-14 00:53:00,62.4,49.7,30.05,NNW,336,0.0,2.0,63,0.00,,---,0.00,VWS V14.00,2013-07-14 07:53:00,
2013-07-14 00:58:00,62.2,49.5,30.05,NNW,336,0.0,2.0,63,0.00,,---,0.00,VWS V14.00,2013-07-14 07:58:00,
2013-07-14 01:03:00,61.9,50.0,30.05,NNW,336,0.0,0.0,65,0.00,,---,0.00,VWS V14.00,2013-07-14 08:03:00,
2013-07-14 01:08:00,61.7,49.8,30.05,NNW,336,0.0,1.0,65,0.00,,---,0.00,VWS V14.00,2013-07-14 08:08:00,
2013-07-14 01:13:00,61.4,50.0,30.05,NNW,336,1.0,2.0,66,0.00,,---,0.00,VWS V14.00,2013-07-14 08:13:00,
2013-07-14 01:18:00,61.2,49.8,30.05,NNW,328,2.0,3.0,66,0.00,,---,0.00,VWS V14.00,2013-07-14 08:18:00,
2013-07-14 01:23:00,61.0,50.0,30.05,North,350,0.0,3.0,67,0.00,,---,0.00,VWS V14.00,2013-07-14 08:23:00,
2013-07-14 01:28:00,60.9,49.9,30.05,NNW,344,0.0,3.0,67,0.00,,---,0.00,VWS V14.00,2013-07-14 08:28:00,
2013-07-14 01:33:00,60.8,49.8,30.05,NNW,344,0.0,2.0,67,0.00,,---,0.00,VWS V14.00,2013-07-14 08:33:00,
2013-07-14 01:38:00,60.7,50.1,30.05,NNW,342,0.0,2.0,68,0.00,,---,0.00,VWS V14.00,2013-07-14 08:38:00,
2013-07-14 01:43:00,60.5,49.9,30.05,NW,325,0.0,3.0,68,0.00,,---,0.00,VWS V14.00,2013-07-14 08:43:00,
2013-07-14 01:48:00,60.4,50.2,30.05,NNW,328,0.0,3.0,69,0.00,,---,0.00,VWS V14.00,2013-07-14 08:48:00,
2013-07-14 01:53:00,60.3,50.1,30.05,NNW,328,0.0,3.0,69,0.00,,---,0.00,VWS V14.00,2013-07-14 08:53:00,
2013-07-14 01:58:00,60.1,50.3,30.05,NNW,328,1.0,3.0,70,0.00,,---,0.00,VWS V14.00,2013-07-14 08:58:00,
2013-07-14 02:03:00,59.9,50.5,30.05,NNW,328,1.0,1.0,71,0.00,,---,0.00,VWS V14.00,2013-07-14 09:03:00,
2013-07-14 02:08:00,59.8,50.4,30.05,NW,321,1.0,3.0,71,0.00,,---,0.00,VWS V14.00,2013-07-14 09:08:00,
2013-07-14 02:13:00,59.8,50.8,30.05,WNW,302,2.0,3.0,72,0.00,,---,0.00,VWS V14.00,2013-07-14 09:13:00,
2013-07-14 02:18:00,59.7,50.7,30.05,NNW,330,0.0,3.0,72,0.00,,---,0.00,VWS V14.00,2013-07-14 09:18:00,
2013-07-14 02:23:00,59.7,51.0,30.05,NW,321,1.0,3.0,73,0.00,,---,0.00,VWS V14.00,2013-07-14 09:23:00,
2013-07-14 02:28:00,59.5,50.8,30.05,NW,321,1.0,3.0,73,0.00,,---,0.00,VWS V14.00,2013-07-14 09:28:00,
2013-07-14 02:34:00,59.4,51.1,30.05,NW,314,3.0,3.0,74,0.00,,---,0.00,VWS V14.00,2013-07-14 09:34:00,
2013-07-14 02:39:00,59.3,51.0,30.05,NW,315,0.0,3.0,74,0.00,,---,0.00,VWS V14.00,2013-07-14 09:39:00,
2013-07-14 02:44:00,59.2,50.9,30.05,NW,315,0.0,3.0,74,0.00,,---,0.00,VWS V14.00,2013-07-14 09:44:00,
2013-07-14 02:49:00,59.1,51.2,30.05,NW,315,0.0,3.0,75,0.00,,---,0.00,VWS V14.00,2013-07-14 09:49:00,
2013-07-14 02:54:00,59.0,51.1,30.05,NW,315,0.0,3.0,75,0.00,,---,0.00,VWS V14.00,2013-07-14 09:54:00,
2013-07-14 02:59:00,58.9,51.0,30.05,NW,315,1.0,3.0,75,0.00,,---,0.00,VWS V14.00,2013-07-14 09:59:00,
2013-07-14 03:04:00,58.8,51.3,30.05,NW,315,1.0,1.0,76,0.00,,---,0.00,VWS V14.00,2013-07-14 10:04:00,
2013-07-14 03:09:00,58.7,51.2,30.05,NW,315,1.0,2.0,76,0.00,,---,0.00,VWS V14.00,2013-07-14 10:09:00,
2013-07-14 03:14:00,58.7,51.5,30.05,NW,321,0.0,2.0,77,0.00,,---,0.00,VWS V14.00,2013-07-14 10:14:00,
2013-07-14 03:19:00,58.7,51.2,30.05,NNW,336,2.0,4.0,76,0.00,,---,0.00,VWS V14.00,2013-07-14 10:19:00,
2013-07-14 03:24:00,58.7,51.5,30.05,NNW,336,0.0,4.0,77,0.00,,---,0.00,VWS V14.00,2013-07-14 10:24:00,
2013-07-14 03:29:00,58.7,51.2,30.05,NNW,335,1.0,4.0,76,0.00,,---,0.00,VWS V14.00,2013-07-14 10:29:00,
2013-07-14 03:34:00,58.6,51.4,30.05,NNW,335,0.0,1.0,77,0.00,,---,0.00,VWS V14.00,2013-07-14 10:34:00,
2013-07-14 03:39:00,58.5,51.3,30.05,NNW,335,0.0,1.0,77,0.00,,---,0.00,VWS V14.00,2013-07-14 10:39:00,
2013-07-14 03:44:00,58.3,51.1,30.05,NNW,335,0.0,1.0,77,0.00,,---,0.00,VWS V14.00,2013-07-14 10:44:00,
2013-07-14 03:49:00,58.2,51.4,30.05,NNW,335,0.0,1.0,78,0.00,,---,0.00,VWS V14.00,2013-07-14 10:49:00,
2013-07-14 03:54:00,58.0,51.2,30.05,NNW,335,0.0,1.0,78,0.00,,---,0.00,VWS V14.00,2013-07-14 10:54:00,
2013-07-14 03:59:00,57.9,51.1,30.05,NNW,335,0.0,1.0,78,0.00,,---,0.00,VWS V14.00,2013-07-14 10:59:00,
2013-07-14 04:04:00,57.7,50.9,30.05,NNW,335,0.0,0.0,78,0.00,,---,0.00,VWS V14.00,2013-07-14 11:04:00,
2013-07-14 04:09:00,57.5,50.7,30.05,NNW,335,0.0,0.0,78,0.00,,---,0.00,VWS V14.00,2013-07-14 11:09:00,
2013-07-14 04:14:00,57.3,50.8,30.05,NNW,335,0.0,1.0,79,0.00,,---,0.00,VWS V14.00,2013-07-14 11:14:00,
2013-07-14 04:19:00,57.1,51.0,30.05,NNW,335,1.0,1.0,80,0.00,,---,0.00,VWS V14.00,2013-07-14 11:19:00,
2013-07-14 04:24:00,56.9,50.8,30.06,NNW,335,0.0,3.0,80,0.00,,---,0.00,VWS V14.00,2013-07-14 11:24:00,
2013-07-14 04:29:00,56.8,50.7,30.05,NW,319,1.0,3.0,80,0.00,,---,0.00,VWS V14.00,2013-07-14 11:29:00,
2013-07-14 04:34:00,56.8,50.7,30.05,NNW,327,2.0,3.0,80,0.00,,---,0.00,VWS V14.00,2013-07-14 11:34:00,
2013-07-14 04:39:00,56.8,50.7,30.05,NW,310,2.0,3.0,80,0.00,,---,0.00,VWS V14.00,2013-07-14 11:39:00,
2013-07-14 04:44:00,56.9,50.8,30.05,NNW,327,1.0,4.0,80,0.00,,---,0.00,VWS V14.00,2013-07-14 11:44:00,
2013-07-14 04:49:00,56.9,50.8,30.05,NW,323,2.0,4.0,80,0.00,,---,0.00,VWS V14.00,2013-07-14 11:49:00,
2013-07-14 04:54:00,56.9,50.8,30.05,NW,323,0.0,4.0,80,0.00,,---,0.00,VWS V14.00,2013-07-14 11:54:00,
2013-07-14 04:59:00,56.9,51.1,30.05,NW,323,0.0,4.0,81,0.00,,---,0.00,VWS V14.00,2013-07-14 11:59:00,
2013-07-14 05:04:00,56.8,51.0,30.05,NW,323,0.0,0.0,81,0.00,,---,0.00,VWS V14.00,2013-07-14 12:04:00,
2013-07-14 05:09:00,56.8,52.0,30.05,NW,323,0.0,1.0,84,0.00,,---,0.00,VWS V14.00,2013-07-14 12:09:00,
2013-07-14 05:14:00,56.7,51.6,30.06,NW,323,0.0,1.0,83,0.00,,---,0.00,VWS V14.00,2013-07-14 12:14:00,
2013-07-14 05:20:00,56.4,51.0,30.06,NW,323,0.0,1.0,82,0.00,,---,0.00,VWS V14.00,2013-07-14 12:20:00,
2013-07-14 05:25:00,56.2,50.8,30.06,NW,323,0.0,1.0,82,0.00,,---,0.00,VWS V14.00,2013-07-14 12:25:00,
2013-07-14 05:30:00,56.0,50.9,30.06,NW,323,0.0,1.0,83,0.00,,---,0.00,VWS V14.00,2013-07-14 12:30:00,
2013-07-14 05:35:00,55.9,50.8,30.06,NW,323,0.0,2.0,83,0.00,,---,0.00,VWS V14.00,2013-07-14 12:35:00,
2013-07-14 05:40:00,55.8,50.7,30.06,NW,323,0.0,2.0,83,0.00,,---,0.00,VWS V14.00,2013-07-14 12:40:00,
2013-07-14 05:45:00,55.7,50.6,30.06,NW,323,0.0,2.0,83,0.00,,---,0.00,VWS V14.00,2013-07-14 12:45:00,
2013-07-14 05:50:00,55.6,50.8,30.06,NW,323,0.0,2.0,84,0.00,,---,0.00,VWS V14.00,2013-07-14 12:50:00,
2013-07-14 05:55:00,55.5,50.4,30.06,NW,323,0.0,2.0,83,0.00,,---,0.00,VWS V14.00,2013-07-14 12:55:00,
2013-07-14 06:00:00,55.5,50.8,30.06,NW,323,0.0,2.0,84,0.00,,---,0.00,VWS V14.00,2013-07-14 13:00:00,
2013-07-14 06:05:00,55.4,50.7,30.06,NW,323,0.0,0.0,84,0.00,,---,0.00,VWS V14.00,2013-07-14 13:05:00,
2013-07-14 06:10:00,55.3,50.6,30.06,NW,323,0.0,1.0,84,0.00,,---,0.00,VWS V14.00,2013-07-14 13:10:00,
2013-07-14 06:15:00,55.3,50.6,30.06,NW,323,0.0,1.0,84,0.00,,---,0.00,VWS V14.00,2013-07-14 13:15:00,
2013-07-14 06:20:00,55.3,50.6,30.06,NW,323,0.0,1.0,84,0.00,,---,0.00,VWS V14.00,2013-07-14 13:20:00,
2013-07-14 06:25:00,55.3,50.6,30.06,NW,323,0.0,1.0,84,0.00,,---,0.00,VWS V14.00,2013-07-14 13:25:00,
2013-07-14 06:30:00,55.5,50.8,30.06,NNW,328,2.0,3.0,84,0.00,,---,0.00,VWS V14.00,2013-07-14 13:30:00,
2013-07-14 06:35:00,55.8,50.7,30.06,NW,317,0.0,3.0,83,0.00,,---,0.00,VWS V14.00,2013-07-14 13:35:00,
2013-07-14 06:40:00,56.2,50.8,30.06,NW,323,0.0,3.0,82,0.00,,---,0.00,VWS V14.00,2013-07-14 13:40:00,
2013-07-14 06:45:00,56.7,50.9,30.07,NW,319,0.0,3.0,81,0.00,,---,0.00,VWS V14.00,2013-07-14 13:45:00,
2013-07-14 06:50:00,57.0,50.9,30.07,NW,314,2.0,3.0,80,0.00,,---,0.00,VWS V14.00,2013-07-14 13:50:00,
2013-07-14 06:55:00,57.4,51.0,30.06,NNW,331,5.0,5.0,79,0.00,,---,0.00,VWS V14.00,2013-07-14 13:55:00,
2013-07-14 07:00:00,57.8,51.0,30.06,NW,323,1.0,5.0,78,0.00,,---,0.00,VWS V14.00,2013-07-14 14:00:00,
2013-07-14 07:05:00,58.1,51.3,30.07,NW,326,1.0,5.0,78,0.00,,---,0.00,VWS V14.00,2013-07-14 14:05:00,
2013-07-14 07:10:00,58.5,51.3,30.07,NW,324,1.0,5.0,77,0.00,,---,0.00,VWS V14.00,2013-07-14 14:10:00,
2013-07-14 07:15:00,58.8,51.6,30.07,NE,49,4.0,6.0,77,0.00,,---,0.00,VWS V14.00,2013-07-14 14:15:00,
2013-07-14 07:20:00,59.1,51.5,30.06,NW,324,1.0,6.0,76,0.00,,---,0.00,VWS V14.00,2013-07-14 14:20:00,
2013-07-14 07:25:00,59.3,51.8,30.06,NNW,332,1.0,6.0,76,0.00,,---,0.00,VWS V14.00,2013-07-14 14:25:00,
2013-07-14 07:30:00,59.6,52.0,30.06,NNE,15,0.0,6.0,76,0.00,,---,0.00,VWS V14.00,2013-07-14 14:30:00,
2013-07-14 07:36:00,59.8,51.9,30.06,WNW,290,0.0,3.0,75,0.00,,---,0.00,VWS V14.00,2013-07-14 14:36:00,
2013-07-14 07:41:00,60.2,51.9,30.06,NNW,329,0.0,4.0,74,0.00,,---,0.00,VWS V14.00,2013-07-14 14:41:00,
2013-07-14 07:46:00,60.5,52.2,30.06,NNW,339,0.0,4.0,74,0.00,,---,0.00,VWS V14.00,2013-07-14 14:46:00,
2013-07-14 07:51:00,60.9,52.2,30.06,NW,307,0.0,5.0,73,0.00,,---,0.00,VWS V14.00,2013-07-14 14:51:00,
2013-07-14 07:56:00,61.3,51.8,30.06,NNW,327,2.0,5.0,71,0.00,,---,0.00,VWS V14.00,2013-07-14 14:56:00,
2013-07-14 08:01:00,61.7,52.2,30.06,NW,321,1.0,5.0,71,0.00,,---,0.00,VWS V14.00,2013-07-14 15:01:00,
2013-07-14 08:06:00,62.1,51.8,30.06,NW,306,3.0,5.0,69,0.00,,---,0.00,VWS V14.00,2013-07-14 15:06:00,
2013-07-14 08:11:00,62.4,51.7,30.06,NNW,329,2.0,5.0,68,0.00,,---,0.00,VWS V14.00,2013-07-14 15:11:00,
2013-07-14 08:16:00,62.7,51.6,30.06,NW,311,2.0,6.0,67,0.00,,---,0.00,VWS V14.00,2013-07-14 15:16:00,
2013-07-14 08:21:00,63.0,51.9,30.06,NW,319,2.0,7.0,67,0.00,,---,0.00,VWS V14.00,2013-07-14 15:21:00,
2013-07-14 08:26:00,63.4,52.3,30.06,WNW,300,3.0,7.0,67,0.00,,---,0.00,VWS V14.00,2013-07-14 15:26:00,
2013-07-14 08:31:00,63.7,51.7,30.06,NW,304,3.0,7.0,65,0.00,,---,0.00,VWS V14.00,2013-07-14 15:31:00,
2013-07-14 08:36:00,64.0,51.6,30.06,NNW,333,4.0,4.0,64,0.00,,---,0.00,VWS V14.00,2013-07-14 15:36:00,
2013-07-14 08:41:00,64.2,51.8,30.06,North,355,4.0,6.0,64,0.00,,---,0.00,VWS V14.00,2013-07-14 15:41:00,
2013-07-14 08:46:00,64.4,52.4,30.06,NW,313,1.0,6.0,65,0.00,,---,0.00,VWS V14.00,2013-07-14 15:46:00,
2013-07-14 08:51:00,64.6,52.2,30.06,NNW,327,4.0,7.0,64,0.00,,---,0.00,VWS V14.00,2013-07-14 15:51:00,
2013-07-14 08:56:00,64.6,52.6,30.06,WNW,297,1.0,7.0,65,0.00,,---,0.00,VWS V14.00,2013-07-14 15:56:00,
2013-07-14 09:01:00,64.8,52.8,30.06,NW,315,5.0,10.0,65,0.00,,---,0.00,VWS V14.00,2013-07-14 16:01:00,
2013-07-14 09:06:00,64.9,52.0,30.06,NW,306,2.0,11.0,63,0.00,,---,0.00,VWS V14.00,2013-07-14 16:06:00,
2013-07-14 09:11:00,65.0,52.5,30.06,NW,312,3.0,11.0,64,0.00,,---,0.00,VWS V14.00,2013-07-14 16:11:00,
2013-07-14 09:16:00,65.2,53.2,30.06,NNW,336,5.0,11.0,65,0.00,,---,0.00,VWS V14.00,2013-07-14 16:16:00,
2013-07-14 09:21:00,65.3,53.2,30.06,NW,312,0.0,11.0,65,0.00,,---,0.00,VWS V14.00,2013-07-14 16:21:00,
2013-07-14 09:26:00,65.6,52.2,30.06,NNW,345,2.0,11.0,62,0.00,,---,0.00,VWS V14.00,2013-07-14 16:26:00,
2013-07-14 09:31:00,65.6,52.7,30.06,NW,315,3.0,11.0,63,0.00,,---,0.00,VWS V14.00,2013-07-14 16:31:00,
2013-07-14 09:36:00,65.8,52.9,30.06,NNW,327,4.0,7.0,63,0.00,,---,0.00,VWS V14.00,2013-07-14 16:36:00,
2013-07-14 09:41:00,66.1,53.6,30.06,NW,315,3.0,7.0,64,0.00,,---,0.00,VWS V14.00,2013-07-14 16:41:00,
2013-07-14 09:46:00,66.5,54.0,30.06,NNW,340,3.0,7.0,64,0.00,,---,0.00,VWS V14.00,2013-07-14 16:46:00,
2013-07-14 09:51:00,66.8,53.8,30.06,NW,315,8.0,8.0,63,0.00,,---,0.00,VWS V14.00,2013-07-14 16:51:00,
2013-07-14 09:56:00,66.9,53.5,30.06,NW,325,5.0,8.0,62,0.00,,---,0.00,VWS V14.00,2013-07-14 16:56:00,
2013-07-14 10:01:00,67.2,53.8,30.06,WNW,290,2.0,8.0,62,0.00,,---,0.00,VWS V14.00,2013-07-14 17:01:00,
2013-07-14 10:06:00,67.5,53.6,30.06,NW,318,2.0,7.0,61,0.00,,---,0.00,VWS V14.00,2013-07-14 17:06:00,
2013-07-14 10:07:00,67.5,53.6,30.06,North,355,4.0,7.0,61,0.00,,---,0.00,VWS V14.00,2013-07-14 17:07:00,
2013-07-14 10:12:00,67.7,53.8,30.06,NW,313,2.0,7.0,61,0.00,,---,0.00,VWS V14.00,2013-07-14 17:12:00,
2013-07-14 10:17:00,68.0,53.6,30.06,WNW,294,2.0,7.0,60,0.00,,---,0.00,VWS V14.00,2013-07-14 17:17:00,
2013-07-14 10:22:00,68.3,53.9,30.06,WNW,294,7.0,8.0,60,0.00,,---,0.00,VWS V14.00,2013-07-14 17:22:00,
2013-07-14 10:27:00,68.5,55.4,30.06,NW,319,4.0,8.0,63,0.00,,---,0.00,VWS V14.00,2013-07-14 17:27:00,
2013-07-14 10:32:00,68.8,54.4,30.06,ENE,71,0.0,0.0,60,0.00,,---,0.00,VWS V14.00,2013-07-14 17:32:00,
2013-07-14 10:37:00,69.0,54.1,30.06,West,278,2.0,5.0,59,0.00,,---,0.00,VWS V14.00,2013-07-14 17:37:00,
2013-07-14 10:42:00,69.4,54.5,30.05,NNW,331,2.0,5.0,59,0.00,,---,0.00,VWS V14.00,2013-07-14 17:42:00,
2013-07-14 10:47:00,69.9,55.4,30.05,NW,324,5.0,5.0,60,0.00,,---,0.00,VWS V14.00,2013-07-14 17:47:00,
2013-07-14 10:52:00,70.1,56.0,30.05,North,360,3.0,5.0,61,0.00,,---,0.00,VWS V14.00,2013-07-14 17:52:00,
2013-07-14 10:57:00,70.4,55.4,30.05,NE,44,3.0,5.0,59,0.00,,---,0.00,VWS V14.00,2013-07-14 17:57:00,
2013-07-14 11:02:00,70.8,56.7,30.05,NNW,333,2.0,3.0,61,0.00,,---,0.00,VWS V14.00,2013-07-14 18:02:00,
2013-07-14 11:07:00,71.1,55.6,30.05,NE,51,1.0,5.0,58,0.00,,---,0.00,VWS V14.00,2013-07-14 18:07:00,
2013-07-14 11:12:00,71.5,56.0,30.05,North,360,2.0,9.0,58,0.00,,---,0.00,VWS V14.00,2013-07-14 18:12:00,
2013-07-14 11:17:00,71.9,54.4,30.05,NE,35,3.0,9.0,54,0.00,,---,0.00,VWS V14.00,2013-07-14 18:17:00,
2013-07-14 11:22:00,72.0,54.5,30.05,NW,325,7.0,11.0,54,0.00,,---,0.00,VWS V14.00,2013-07-14 18:22:00,
2013-07-14 11:27:00,72.1,56.5,30.04,NE,41,1.0,11.0,58,0.00,,---,0.00,VWS V14.00,2013-07-14 18:27:00,
2013-07-14 11:32:00,72.7,56.1,30.04,NE,44,2.0,3.0,56,0.00,,---,0.00,VWS V14.00,2013-07-14 18:32:00,
2013-07-14 11:37:00,73.4,56.8,30.04,North,11,1.0,7.0,56,0.00,,---,0.00,VWS V14.00,2013-07-14 18:37:00,
2013-07-14 11:43:00,73.9,56.2,30.04,NW,320,6.0,7.0,54,0.00,,---,0.00,VWS V14.00,2013-07-14 18:43:00,
2013-07-14 11:48:00,74.3,55.0,30.04,NW,320,6.0,9.0,51,0.00,,---,0.00,VWS V14.00,2013-07-14 18:48:00,
2013-07-14 11:53:00,74.1,55.9,30.04,North,5,0.0,10.0,53,0.00,,---,0.00,VWS V14.00,2013-07-14 18:53:00,
2013-07-14 11:58:00,74.3,55.0,30.03,North,355,3.0,10.0,51,0.00,,---,0.00,VWS V14.00,2013-07-14 18:58:00,
2013-07-14 12:03:00,74.6,55.8,30.03,NW,305,5.0,7.0,52,0.00,,---,0.00,VWS V14.00,2013-07-14 19:03:00,
2013-07-14 12:08:00,74.8,57.6,30.03,West,277,0.0,9.0,55,0.00,,---,0.00,VWS V14.00,2013-07-14 19:08:00,
2013-07-14 12:13:00,75.2,57.4,30.03,NE,46,2.0,9.0,54,0.00,,---,0.00,VWS V14.00,2013-07-14 19:13:00,
2013-07-14 12:18:00,75.3,57.5,30.03,South,183,2.0,9.0,54,0.00,,---,0.00,VWS V14.00,2013-07-14 19:18:00,
2013-07-14 12:23:00,75.7,56.3,30.03,WNW,285,4.0,9.0,51,0.00,,---,0.00,VWS V14.00,2013-07-14 19:23:00,
2013-07-14 12:28:00,76.2,57.3,30.02,NW,304,3.0,9.0,52,0.00,,---,0.00,VWS V14.00,2013-07-14 19:28:00,
2013-07-14 12:33:00,76.6,58.2,30.03,North,360,1.0,2.0,53,0.00,,---,0.00,VWS V14.00,2013-07-14 19:33:00,
2013-07-14 12:38:00,76.7,57.8,30.02,NNW,336,2.0,6.0,52,0.00,,---,0.00,VWS V14.00,2013-07-14 19:38:00,
2013-07-14 12:43:00,77.3,55.5,30.02,WNW,284,3.0,6.0,47,0.00,,---,0.00,VWS V14.00,2013-07-14 19:43:00,
2013-07-14 12:48:00,77.8,56.0,30.02,NNW,341,3.0,6.0,47,0.00,,---,0.00,VWS V14.00,2013-07-14 19:48:00,
2013-07-14 12:53:00,77.9,56.1,30.02,NNW,341,3.0,10.0,47,0.00,,---,0.00,VWS V14.00,2013-07-14 19:53:00,
2013-07-14 12:58:00,78.1,55.0,30.02,ENE,60,1.0,11.0,45,0.00,,---,0.00,VWS V14.00,2013-07-14 19:58:00,
2013-07-14 13:03:00,78.2,55.1,30.02,NE,34,3.0,7.0,45,0.00,,---,0.00,VWS V14.00,2013-07-14 20:03:00,
2013-07-14 13:08:00,78.3,55.2,30.02,NNW,344,4.0,12.0,45,0.00,,---,0.00,VWS V14.00,2013-07-14 20:08:00,
2013-07-14 13:13:00,78.5,56.6,30.01,NNE,20,1.0,12.0,47,0.00,,---,0.00,VWS V14.00,2013-07-14 20:13:00,
2013-07-14 13:18:00,79.1,56.6,30.01,NNE,26,3.0,12.0,46,0.00,,---,0.00,VWS V14.00,2013-07-14 20:18:00,
2013-07-14 13:23:00,79.4,54.3,30.01,NW,311,10.0,12.0,42,0.00,,---,0.00,VWS V14.00,2013-07-14 20:23:00,
2013-07-14 13:28:00,79.6,55.8,30.01,NNW,346,1.0,12.0,44,0.00,,---,0.00,VWS V14.00,2013-07-14 20:28:00,
2013-07-14 13:33:00,79.8,56.0,30.01,NE,43,3.0,4.0,44,0.00,,---,0.00,VWS V14.00,2013-07-14 20:33:00,
2013-07-14 13:38:00,79.8,56.0,30.01,NNW,343,0.0,10.0,44,0.00,,---,0.00,VWS V14.00,2013-07-14 20:38:00,
2013-07-14 13:43:00,80.0,55.5,30.01,NW,323,6.0,10.0,43,0.00,,---,0.00,VWS V14.00,2013-07-14 20:43:00,
2013-07-14 13:48:00,80.7,56.2,30.01,WNW,291,3.0,10.0,43,0.00,,---,0.00,VWS V14.00,2013-07-14 20:48:00,
2013-07-14 13:53:00,81.0,56.4,30.00,WNW,286,1.0,11.0,43,0.00,,---,0.00,VWS V14.00,2013-07-14 20:53:00,
2013-07-14 13:58:00,81.4,55.5,30.00,NNW,333,4.0,11.0,41,0.00,,---,0.00,VWS V14.00,2013-07-14 20:58:00,
2013-07-14 14:03:00,81.8,58.4,30.00,NNW,345,1.0,2.0,45,0.00,,---,0.00,VWS V14.00,2013-07-14 21:03:00,
2013-07-14 14:04:00,81.8,56.5,30.00,NE,44,1.0,2.0,42,0.00,,---,0.00,VWS V14.00,2013-07-14 21:04:00,
2013-07-14 14:09:00,82.0,55.3,30.00,NW,319,3.0,7.0,40,0.00,,---,0.00,VWS V14.00,2013-07-14 21:09:00,
2013-07-14 14:14:00,82.4,55.0,30.00,NNW,347,4.0,8.0,39,0.00,,---,0.00,VWS V14.00,2013-07-14 21:14:00,
2013-07-14 14:19:00,82.8,56.0,30.00,West,275,2.0,8.0,40,0.00,,---,0.00,VWS V14.00,2013-07-14 21:19:00,
2013-07-14 14:24:00,83.3,55.8,29.99,WNW,288,1.0,8.0,39,0.00,,---,0.00,VWS V14.00,2013-07-14 21:24:00,
2013-07-14 14:29:00,83.4,55.9,30.00,North,350,6.0,10.0,39,0.00,,---,0.00,VWS V14.00,2013-07-14 21:29:00,
2013-07-14 14:34:00,83.1,54.9,29.99,NW,304,4.0,8.0,38,0.00,,---,0.00,VWS V14.00,2013-07-14 21:34:00,
2013-07-14 14:39:00,83.4,55.2,29.99,North,350,1.0,8.0,38,0.00,,---,0.00,VWS V14.00,2013-07-14 21:39:00,
2013-07-14 14:44:00,83.9,54.9,29.99,NNW,328,2.0,10.0,37,0.00,,---,0.00,VWS V14.00,2013-07-14 21:44:00,
2013-07-14 14:49:00,84.0,56.4,29.99,WSW,243,2.0,10.0,39,0.00,,---,0.00,VWS V14.00,2013-07-14 21:49:00,
2013-07-14 14:54:00,84.2,56.6,29.99,East,96,1.0,10.0,39,0.00,,---,0.00,VWS V14.00,2013-07-14 21:54:00,
2013-07-14 14:59:00,84.4,54.6,29.98,ENE,59,1.0,10.0,36,0.00,,---,0.00,VWS V14.00,2013-07-14 21:59:00,
2013-07-14 15:04:00,84.3,54.5,29.98,NNW,347,3.0,5.0,36,0.00,,---,0.00,VWS V14.00,2013-07-14 22:04:00,
2013-07-14 15:09:00,84.7,57.0,29.98,NW,317,3.0,6.0,39,0.00,,---,0.00,VWS V14.00,2013-07-14 22:09:00,
2013-07-14 15:14:00,84.9,54.2,29.98,NW,313,3.0,11.0,35,0.00,,---,0.00,VWS V14.00,2013-07-14 22:14:00,
2013-07-14 15:19:00,84.7,53.3,29.98,West,274,3.0,11.0,34,0.00,,---,0.00,VWS V14.00,2013-07-14 22:19:00,
2013-07-14 15:24:00,84.7,54.8,29.98,NW,314,11.0,11.0,36,0.00,,---,0.00,VWS V14.00,2013-07-14 22:24:00,
2013-07-14 15:29:00,84.5,54.6,29.97,NW,317,2.0,11.0,36,0.00,,---,0.00,VWS V14.00,2013-07-14 22:29:00,
2013-07-14 15:34:00,84.9,57.9,29.97,NNW,327,1.0,6.0,40,0.00,,---,0.00,VWS V14.00,2013-07-14 22:34:00,
2013-07-14 15:39:00,85.3,54.6,29.97,North,355,5.0,7.0,35,0.00,,---,0.00,VWS V14.00,2013-07-14 22:39:00,
2013-07-14 15:45:00,85.3,54.6,29.97,North,360,4.0,10.0,35,0.00,,---,0.00,VWS V14.00,2013-07-14 22:45:00,
2013-07-14 15:50:00,85.4,54.7,29.97,NW,323,2.0,10.0,35,0.00,,---,0.00,VWS V14.00,2013-07-14 22:50:00,
2013-07-14 15:55:00,85.6,54.0,29.96,NNW,331,3.0,10.0,34,0.00,,---,0.00,VWS V14.00,2013-07-14 22:55:00,
2013-07-14 16:00:00,85.8,54.2,29.96,NW,316,1.0,10.0,34,0.00,,---,0.00,VWS V14.00,2013-07-14 23:00:00,
2013-07-14 16:05:00,86.3,54.7,29.96,NE,55,0.0,5.0,34,0.00,,---,0.00,VWS V14.00,2013-07-14 23:05:00,
2013-07-14 16:10:00,86.4,53.1,29.96,WNW,285,6.0,9.0,32,0.00,,---,0.00,VWS V14.00,2013-07-14 23:10:00,
2013-07-14 16:15:00,86.4,53.1,29.96,WNW,302,2.0,9.0,32,0.00,,---,0.00,VWS V14.00,2013-07-14 23:15:00,
2013-07-14 16:20:00,86.3,52.1,29.96,NE,39,2.0,9.0,31,0.00,,---,0.00,VWS V14.00,2013-07-14 23:20:00,
2013-07-14 16:25:00,86.3,51.2,29.95,NNE,20,2.0,10.0,30,0.00,,---,0.00,VWS V14.00,2013-07-14 23:25:00,
2013-07-14 16:30:00,86.2,52.9,29.95,NW,321,1.0,10.0,32,0.00,,---,0.00,VWS V14.00,2013-07-14 23:30:00,
2013-07-14 16:35:00,86.7,52.5,29.95,West,273,7.0,9.0,31,0.00,,---,0.00,VWS V14.00,2013-07-14 23:35:00,
2013-07-14 16:40:00,86.7,52.5,29.95,ENE,58,3.0,12.0,31,0.00,,---,0.00,VWS V14.00,2013-07-14 23:40:00,
2013-07-14 16:45:00,86.5,51.4,29.95,North,355,2.0,12.0,30,0.00,,---,0.00,VWS V14.00,2013-07-14 23:45:00,
2013-07-14 16:50:00,86.4,52.2,29.95,NNW,329,0.0,12.0,31,0.00,,---,0.00,VWS V14.00,2013-07-14 23:50:00,
2013-07-14 16:55:00,86.6,51.5,29.95,WNW,298,4.0,12.0,30,0.00,,---,0.00,VWS V14.00,2013-07-14 23:55:00,
2013-07-14 17:00:00,86.4,51.3,29.94,NNW,333,4.0,12.0,30,0.00,,---,0.00,VWS V14.00,2013-07-15 00:00:00,
2013-07-14 17:05:00,86.4,53.9,29.94,NNW,331,2.0,9.0,33,0.00,,---,0.00,VWS V14.00,2013-07-15 00:05:00,
2013-07-14 17:10:00,86.5,52.3,29.94,North,355,2.0,9.0,31,0.00,,---,0.00,VWS V14.00,2013-07-15 00:10:00,
2013-07-14 17:15:00,86.3,53.8,29.94,NNW,327,3.0,9.0,33,0.00,,---,0.00,VWS V14.00,2013-07-15 00:15:00,
2013-07-14 17:20:00,86.4,52.2,29.94,WNW,282,2.0,9.0,31,0.00,,---,0.00,VWS V14.00,2013-07-15 00:20:00,
2013-07-14 17:25:00,86.4,51.3,29.94,NNE,32,3.0,9.0,30,0.00,,---,0.00,VWS V14.00,2013-07-15 00:25:00,
2013-07-14 17:30:00,86.3,52.1,29.93,East,79,1.0,9.0,31,0.00,,---,0.00,VWS V14.00,2013-07-15 00:30:00,
2013-07-14 17:35:00,86.0,55.2,29.93,WSW,258,3.0,4.0,35,0.00,,---,0.00,VWS V14.00,2013-07-15 00:35:00,
2013-07-14 17:40:00,86.0,51.9,29.93,NNW,342,2.0,6.0,31,0.00,,---,0.00,VWS V14.00,2013-07-15 00:40:00,
2013-07-14 17:45:00,86.0,53.6,29.93,WNW,301,1.0,7.0,33,0.00,,---,0.00,VWS V14.00,2013-07-15 00:45:00,
2013-07-14 17:50:00,85.8,50.8,29.93,NNE,17,3.0,7.0,30,0.00,,---,0.00,VWS V14.00,2013-07-15 00:50:00,
2013-07-14 17:55:00,85.9,52.7,29.93,NNW,336,4.0,7.0,32,0.00,,---,0.00,VWS V14.00,2013-07-15 00:55:00,
2013-07-14 18:00:00,85.8,50.8,29.93,NNW,328,3.0,7.0,30,0.00,,---,0.00,VWS V14.00,2013-07-15 01:00:00,
2013-07-14 18:05:00,86.0,50.1,29.92,West,281,2.0,5.0,29,0.00,,---,0.00,VWS V14.00,2013-07-15 01:05:00,
2013-07-14 18:10:00,86.1,50.2,29.92,NNE,30,1.0,6.0,29,0.00,,---,0.00,VWS V14.00,2013-07-15 01:10:00,
2013-07-14 18:16:00,85.8,49.9,29.92,WNW,288,1.0,6.0,29,0.00,,---,0.00,VWS V14.00,2013-07-15 01:16:00,
2013-07-14 18:21:00,85.7,51.6,29.92,North,355,0.0,8.0,31,0.00,,---,0.00,VWS V14.00,2013-07-15 01:21:00,
2013-07-14 18:26:00,85.5,50.6,29.92,NNW,337,2.0,8.0,30,0.00,,---,0.00,VWS V14.00,2013-07-15 01:26:00,
2013-07-14 18:31:00,85.3,51.3,29.92,WNW,302,3.0,8.0,31,0.00,,---,0.00,VWS V14.00,2013-07-15 01:31:00,
2013-07-14 18:36:00,84.9,50.0,29.92,NNW,333,1.0,3.0,30,0.00,,---,0.00,VWS V14.00,2013-07-15 01:36:00,
2013-07-14 18:41:00,84.5,50.6,29.92,NNW,333,1.0,4.0,31,0.00,,---,0.00,VWS V14.00,2013-07-15 01:41:00,
2013-07-14 18:46:00,83.9,53.3,29.92,ENE,73,1.0,6.0,35,0.00,,---,0.00,VWS V14.00,2013-07-15 01:46:00,
2013-07-14 18:51:00,83.4,46.9,29.92,NNE,28,1.0,6.0,28,0.00,,---,0.00,VWS V14.00,2013-07-15 01:51:00,
2013-07-14 18:56:00,83.2,48.6,29.92,NNW,336,0.0,6.0,30,0.00,,---,0.00,VWS V14.00,2013-07-15 01:56:00,
2013-07-14 19:01:00,82.8,50.0,29.92,NNE,17,0.0,6.0,32,0.00,,---,0.00,VWS V14.00,2013-07-15 02:01:00,
2013-07-14 19:06:00,82.7,48.1,29.92,North,355,0.0,4.0,30,0.00,,---,0.00,VWS V14.00,2013-07-15 02:06:00,
2013-07-14 19:11:00,82.5,48.8,29.92,NNW,332,1.0,4.0,31,0.00,,---,0.00,VWS V14.00,2013-07-15 02:11:00,
2013-07-14 19:16:00,82.2,50.3,29.92,NW,319,4.0,7.0,33,0.00,,---,0.00,VWS V14.00,2013-07-15 02:16:00,
2013-07-14 19:21:00,82.0,48.4,29.92,NNE,20,0.0,8.0,31,0.00,,---,0.00,VWS V14.00,2013-07-15 02:21:00,
2013-07-14 19:26:00,81.9,49.2,29.92,NW,313,2.0,8.0,32,0.00,,---,0.00,VWS V14.00,2013-07-15 02:26:00,
2013-07-14 19:31:00,81.7,49.0,29.92,NE,46,1.0,8.0,32,0.00,,---,0.00,VWS V14.00,2013-07-15 02:31:00,
2013-07-14 19:36:00,81.4,51.2,29.92,NNW,338,1.0,3.0,35,0.00,,---,0.00,VWS V14.00,2013-07-15 02:36:00,
2013-07-14 19:41:00,81.0,51.6,29.92,NW,318,1.0,3.0,36,0.00,,---,0.00,VWS V14.00,2013-07-15 02:41:00,
2013-07-14 19:46:00,80.5,55.3,29.93,NW,319,0.0,3.0,42,0.00,,---,0.00,VWS V14.00,2013-07-15 02:46:00,
2013-07-14 19:51:00,79.9,50.6,29.93,NW,318,1.0,3.0,36,0.00,,---,0.00,VWS V14.00,2013-07-15 02:51:00,
2013-07-14 19:56:00,79.6,51.8,29.93,NW,309,0.0,4.0,38,0.00,,---,0.00,VWS V14.00,2013-07-15 02:56:00,
2013-07-14 20:01:00,79.3,51.5,29.93,NNW,348,1.0,4.0,38,0.00,,---,0.00,VWS V14.00,2013-07-15 03:01:00,
2013-07-14 20:06:00,78.9,51.2,29.93,NNW,337,1.0,3.0,38,0.00,,---,0.00,VWS V14.00,2013-07-15 03:06:00,
2013-07-14 20:11:00,78.8,50.4,29.93,WNW,300,1.0,4.0,37,0.00,,---,0.00,VWS V14.00,2013-07-15 03:11:00,
2013-07-14 20:16:00,78.7,51.0,29.93,NW,309,0.0,4.0,38,0.00,,---,0.00,VWS V14.00,2013-07-15 03:16:00,
2013-07-14 20:21:00,78.5,50.8,29.93,NW,309,0.0,4.0,38,0.00,,---,0.00,VWS V14.00,2013-07-15 03:21:00,
2013-07-14 20:26:00,78.1,51.2,29.93,NW,309,0.0,4.0,39,0.00,,---,0.00,VWS V14.00,2013-07-15 03:26:00,
2013-07-14 20:31:00,77.8,51.6,29.94,NW,309,0.0,4.0,40,0.00,,---,0.00,VWS V14.00,2013-07-15 03:31:00,
2013-07-14 20:36:00,77.3,51.1,29.94,NW,311,0.0,2.0,40,0.00,,---,0.00,VWS V14.00,2013-07-15 03:36:00,
2013-07-14 20:41:00,76.7,51.2,29.94,NW,313,0.0,2.0,41,0.00,,---,0.00,VWS V14.00,2013-07-15 03:41:00,
2013-07-14 20:47:00,76.3,51.5,29.94,NW,313,1.0,2.0,42,0.00,,---,0.00,VWS V14.00,2013-07-15 03:47:00,
2013-07-14 20:51:00,75.8,51.7,29.94,NW,313,1.0,2.0,43,0.00,,---,0.00,VWS V14.00,2013-07-15 03:51:00,
2013-07-14 20:56:00,75.4,51.4,29.94,NW,313,0.0,2.0,43,0.00,,---,0.00,VWS V14.00,2013-07-15 03:56:00,
2013-07-14 21:01:00,75.1,51.1,29.94,NW,313,0.0,2.0,43,0.00,,---,0.00,VWS V14.00,2013-07-15 04:01:00,
2013-07-14 21:02:00,75.0,51.6,29.94,NW,313,0.0,0.0,44,0.00,,---,0.00,VWS V14.00,2013-07-15 04:02:00,
2013-07-14 21:07:00,74.6,51.9,29.94,NW,307,0.0,2.0,45,0.00,,---,0.00,VWS V14.00,2013-07-15 04:07:00,
2013-07-14 21:12:00,74.2,51.5,29.94,NNW,343,1.0,2.0,45,0.00,,---,0.00,VWS V14.00,2013-07-15 04:12:00,
2013-07-14 21:17:00,73.9,51.8,29.94,NNW,343,0.0,2.0,46,0.00,,---,0.00,VWS V14.00,2013-07-15 04:17:00,
2013-07-14 21:22:00,73.6,51.6,29.95,NNW,343,1.0,4.0,46,0.00,,---,0.00,VWS V14.00,2013-07-15 04:22:00,
2013-07-14 21:27:00,73.5,52.1,29.95,NNW,336,3.0,4.0,47,0.00,,---,0.00,VWS V14.00,2013-07-15 04:27:00,
2013-07-14 21:32:00,73.3,51.9,29.95,NW,309,1.0,3.0,47,0.00,,---,0.00,VWS V14.00,2013-07-15 04:32:00,
2013-07-14 21:37:00,73.4,52.5,29.95,NW,306,2.0,8.0,48,0.00,,---,0.00,VWS V14.00,2013-07-15 04:37:00,
2013-07-14 21:42:00,73.4,52.0,29.95,NNW,336,3.0,8.0,47,0.00,,---,0.00,VWS V14.00,2013-07-15 04:42:00,
2013-07-14 21:47:00,73.2,52.4,29.96,NNW,336,2.0,8.0,48,0.00,,---,0.00,VWS V14.00,2013-07-15 04:47:00,
2013-07-14 21:52:00,72.9,52.1,29.96,NW,306,0.0,8.0,48,0.00,,---,0.00,VWS V14.00,2013-07-15 04:52:00,
2013-07-14 21:57:00,72.6,52.4,29.96,NW,325,2.0,8.0,49,0.00,,---,0.00,VWS V14.00,2013-07-15 04:57:00,
2013-07-14 22:02:00,72.4,52.2,29.96,WNW,295,1.0,2.0,49,0.00,,---,0.00,VWS V14.00,2013-07-15 05:02:00,
2013-07-14 22:08:00,72.0,51.8,29.96,NNW,338,1.0,6.0,49,0.00,,---,0.00,VWS V14.00,2013-07-15 05:08:00,
2013-07-14 22:13:00,71.7,53.2,29.97,NNW,329,2.0,6.0,52,0.00,,---,0.00,VWS V14.00,2013-07-15 05:13:00,
2013-07-14 22:18:00,71.3,52.3,29.97,NNW,334,1.0,6.0,51,0.00,,---,0.00,VWS V14.00,2013-07-15 05:18:00,
2013-07-14 22:23:00,70.9,51.9,29.97,NW,323,1.0,6.0,51,0.00,,---,0.00,VWS V14.00,2013-07-15 05:23:00,
2013-07-14 22:28:00,70.5,51.5,29.97,NNW,333,3.0,6.0,51,0.00,,---,0.00,VWS V14.00,2013-07-15 05:28:00,
2013-07-14 22:33:00,70.0,51.6,29.97,NW,325,1.0,3.0,52,0.00,,---,0.00,VWS V14.00,2013-07-15 05:33:00,
2013-07-14 22:38:00,69.5,50.1,29.97,NW,325,1.0,3.0,50,0.00,,---,0.00,VWS V14.00,2013-07-15 05:38:00,
2013-07-14 22:43:00,69.1,49.2,29.97,North,5,0.0,4.0,49,0.00,,---,0.00,VWS V14.00,2013-07-15 05:43:00,
2013-07-14 22:48:00,68.9,48.4,29.97,NNW,338,2.0,5.0,48,0.00,,---,0.00,VWS V14.00,2013-07-15 05:48:00,
2013-07-14 22:53:00,68.7,46.5,29.97,NW,319,2.0,5.0,45,0.00,,---,0.00,VWS V14.00,2013-07-15 05:53:00,
2013-07-14 22:58:00,68.4,45.7,29.97,NNW,335,2.0,5.0,44,0.00,,---,0.00,VWS V14.00,2013-07-15 05:58:00,
2013-07-14 23:03:00,68.2,44.9,29.97,NW,326,1.0,2.0,43,0.00,,---,0.00,VWS V14.00,2013-07-15 06:03:00,
2013-07-14 23:08:00,67.9,42.7,29.97,North,360,2.0,4.0,40,0.00,,---,0.00,VWS V14.00,2013-07-15 06:08:00,
2013-07-14 23:13:00,67.8,42.6,29.98,NW,318,2.0,4.0,40,0.00,,---,0.00,VWS V14.00,2013-07-15 06:13:00,
2013-07-14 23:18:00,67.6,41.8,29.98,NNW,336,1.0,4.0,39,0.00,,---,0.00,VWS V14.00,2013-07-15 06:18:00,
2013-07-14 23:23:00,67.4,41.6,29.98,NW,311,2.0,4.0,39,0.00,,---,0.00,VWS V14.00,2013-07-15 06:23:00,
2013-07-14 23:28:00,67.2,41.4,29.98,NW,315,1.0,4.0,39,0.00,,---,0.00,VWS V14.00,2013-07-15 06:28:00,
2013-07-14 23:33:00,66.9,41.8,29.98,NNW,327,0.0,1.0,40,0.00,,---,0.00,VWS V14.00,2013-07-15 06:33:00,
2013-07-14 23:38:00,66.7,42.3,29.98,NW,306,2.0,3.0,41,0.00,,---,0.00,VWS V14.00,2013-07-15 06:38:00,
2013-07-14 23:43:00,66.4,42.6,29.98,NW,322,1.0,3.0,42,0.00,,---,0.00,VWS V14.00,2013-07-15 06:43:00,
2013-07-14 23:48:00,66.1,43.6,29.98,NW,326,1.0,3.0,44,0.00,,---,0.00,VWS V14.00,2013-07-15 06:48:00,
2013-07-14 23:53:00,65.8,43.3,29.99,NW,319,0.0,3.0,44,0.00,,---,0.00,VWS V14.00,2013-07-15 06:53:00,
2013-07-14 23:58:00,65.4,44.1,29.98,NW,320,1.0,3.0,46,0.00,,---,0.00,VWS V14.00,2013-07-15 06:58:00,